Vertical_Velocity
-3 1 3 3 1 1 -0 -3 -1 -0 -1 -1 -0 -1 0 1 -1 -1 1 2 1 -0 -1 -0 1 4 2 3 3 4 1 1 2 -5 3 1 1 2 3 2 0 1 1
4 3 2 0 1 -1 1 3 0 -2 -1 -0 -0 -2 -0 0 -0 0 1 -0 -0 1 1 1 1 0 -0 1 1 -0 -0 1 3 -4 -2 -5 0 4 4 3 2 0 -1
-1 -1 2 2 -3 -1 -1 1 2 1 1 0 -1 -0 0 -0 0 -1 -2 -1 1 1 -1 -1 1 -0 -1 -1 1 1 -2 -2 1 2 -1 -8 -6 -3 -3 -0 -2 0 0
2 1 -3 -2 -2 -2 -2 -1 0 -0 0 -0 -1 -1 -1 -1 0 1 1 -0 -0 -1 -1 -0 -1 0 0 0 0 -1 -0 -1 2 -1 2 -1 -2 -0 -6 2 -0 -4 0
-1 1 3 2 -2 -2 -2 -0 1 1 -0 -0 1 0 -1 -1 -0 -0 0 -1 -1 -0 -1 -1 -0 0 -1 0 0 -0 1 -0 -1 -1 1 1 -1 -0 -4 -5 4 2 -2
3 1 -1 1 3 0 -2 -3 -2 -2 -1 2 1 1 0 -0 0 0 -0 -0 0 -0 -1 -2 -2 -2 -1 1 1 1 1 -0 0 1 -2 -1 -1 -1 -3 -7 -1 -2 2
-0 1 5 4 2 1 1 -0 -3 -4 -3 -2 -1 -1 -1 -1 -0 -0 0 1 1 2 2 1 0 1 1 1 1 1 1 0 1 -1 0 -2 -0 -2 -1 -2 -0 -4 -1
1 2 3 2 1 -0 -0 -0 0 -0 -0 -1 -2 -2 -2 -1 -1 -2 -2 -1 -2 -1 -2 -2 -1 1 1 2 3 2 1 0 2 0 -1 1 2 1 -1 -4 -1 -3 -0
3 4 3 3 0 -2 -1 -1 -0 -0 -0 0 -0 -1 -1 -1 -2 -1 -1 -1 -1 -0 -0 -0 -1 -1 -0 0 1 1 -0 1 1 0 0 -0 0 0 -0 0 -0 -3 -3
0 -1 1 2 2 0 -1 -1 -1 -1 -0 -1 -0 -0 -0 -1 -1 -2 -2 -0 -1 -0 -0 0 -1 -1 -1 -1 -0 0 1 2 2 1 1 1 -1 1 1 -1 0 -1 -4
3 2 0 0 -0 -1 -0 0 -1 -0 -1 -0 0 0 -0 -0 -0 -1 -1 -1 0 1 0 -0 1 0 -0 -0 -2 -0 1 -0 0 0 1 -0 -1 -0 -0 2 -1 -1 -1
5 0 -1 1 1 0 -1 -0 -0 1 1 0 -1 -2 -0 -1 -0 -0 -1 -1 -3 -1 0 1 -1 1 1 1 0 1 -1 -2 1 1 -1 -3 0 1 2 -1 -2 -2 -1
-1 1 4 3 0 -0 1 0 -1 -2 -2 -1 -1 1 0 -0 -1 -1 -1 0 1 -1 -0 -1 -1 -1 -1 1 1 1 1 1 -1 -0 1 -1 1 1 1 -1 -2 -3 -2
3 -0 -3 3 4 0 -1 -0 -2 -0 -1 -2 -2 -2 -1 0 -0 -1 2 0 0 -1 -2 -2 -1 1 -1 1 -3 2 0 -1 -1 1 0 0 -0 1 -0 -0 -2 -0 -0
-2 -1 -3 2 5 0 -0 -1 -1 -0 -1 -0 -0 -1 -3 1 3 -1 2 1 -1 -0 -2 1 -4 2 -2 -2 1 1 -1 1 1 -0 1 -0 -1 -1 -2 2 -0 0 1
-5 -2 2 -1 3 -3 -2 2 0 -3 0 -0 -1 3 1 -5 3 -1 2 1 1 -2 -0 -0 -2 0 -2 -1 3 1 1 -0 0 1 1 -1 0 1 1 2 0 0 -0
3 3 4 1 1 1 0 0 2 -2 0 -0 1 1 1 -2 -1 1 1 1 1 0 1 -3 -1 2 -1 -1 3 -1 0 1 2 1 -0 0 0 -0 1 -0 -1 -0 -1
2 1 1 1 1 2 -0 -1 -1 -0 -2 -1 1 -1 1 -1 -0 2 1 1 1 -1 1 2 -1 0 1 -0 0 0 1 2 0 -0 -2 -1 1 1 -2 -1 0 -1 -0
-2 -1 -1 -1 -1 -1 -1 -2 -1 1 1 -0 -1 -1 -1 -1 1 1 -0 1 -1 1 2 1 0 -1 1 1 1 0 0 -1 -0 -2 -2 -1 -1 -0 2 0 -0 -1 -1
-0 -2 -2 0 0 0 -1 0 0 -1 -1 -1 1 2 2 -0 2 1 1 1 1 0 1 1 -3 -1 0 1 -1 -1 -0 -0 0 -1 0 1 0 -1 -1 -2 -0 -1 -2
1 1 0 0 -0 -3 -0 -0 -1 -1 1 0 -1 -0 1 1 1 -0 0 2 1 0 -1 1 -0 1 -1 -0 1 -0 -0 0 -0 -0 -1 -2 -1 -0 -0 -0 -1 -1 -2
-0 -0 0 1 2 1 0 -1 -0 -1 -0 -1 -1 1 0 -0 -1 0 1 1 -1 1 1 0 1 0 1 0 3 0 -0 1 1 0 -1 -1 -1 -2 -2 -2 -2 -2 -1
-1 -2 -1 0 -0 -1 -1 -1 1 -1 3 0 -0 3 -1 -1 -0 -2 3 -0 0 -0 0 0 -1 0 -1 1 1 0 1 1 -1 -1 -1 -1 -1 -2 -2 -2 -2 -2 -1
1 2 2 -1 1 -0 -1 -1 -0 -0 0 0 1 1 2 1 -1 -1 2 2 0 -0 -0 0 0 -1 -2 0 -1 0 1 1 1 0 0 -1 -2 -1 -0 -1 -1 -1 -1
3 4 4 1 1 1 0 -0 -1 -1 -0 1 1 1 1 -0 1 0 1 1 1 1 0 -1 0 -1 0 1 1 0 0 0 -0 -1 -1 -1 -2 -2 -1 -1 -1 -2 -2
0 1 2 3 -0 1 1 -0 -2 -1 0 1 1 -0 -0 0 1 2 1 1 -0 0 -0 -0 0 1 1 1 1 0 -0 0 1 1 -0 -1 -1 -0 -0 -2 -3 -2 -1
Height
3137 3140 3143 3145 3148 3151 3153 3155 3156 3157 3158 3160 3161 3162 3164 3165 3166 3167 3167 3168 3167 3167 3167 3167 3167 3167 3166 3165 3165 3163 3162 3161 3159 3155 3155 3155 3154 3153 3152 3151 3152 3152 3151
3133 3136 3139 3141 3144 3146 3148 3150 3151 3152 3153 3154 3155 3156 3157 3158 3160 3161 3161 3161 3160 3160 3159 3160 3159 3158 3157 3157 3157 3155 3154 3153 3153 3149 3146 3142 3144 3145 3145 3144 3143 3143 3142
3126 3130 3133 3136 3140 3141 3142 3144 3145 3147 3148 3149 3149 3149 3150 3151 3152 3152 3153 3152 3152 3151 3151 3151 3150 3150 3149 3150 3149 3148 3145 3143 3143 3142 3140 3135 3133 3133 3133 3134 3134 3134 3134
3120 3123 3126 3129 3132 3135 3136 3138 3139 3140 3141 3142 3143 3143 3144 3144 3145 3145 3145 3144 3144 3144 3143 3143 3142 3142 3141 3140 3140 3139 3137 3135 3134 3134 3134 3132 3128 3125 3122 3121 3122 3123 3123
3115 3118 3121 3123 3126 3128 3130 3131 3133 3134 3135 3135 3135 3136 3136 3137 3137 3137 3137 3137 3136 3136 3136 3135 3135 3134 3134 3133 3132 3131 3129 3128 3127 3126 3125 3125 3122 3121 3118 3114 3114 3114 3113
3109 3113 3115 3118 3121 3122 3123 3125 3126 3127 3128 3128 3128 3128 3129 3129 3129 3129 3129 3130 3129 3128 3128 3128 3128 3128 3127 3125 3124 3123 3122 3120 3119 3119 3119 3118 3116 3115 3112 3109 3106 3105 3104
3102 3106 3110 3113 3115 3115 3116 3117 3118 3119 3120 3120 3120 3121 3121 3121 3121 3121 3121 3121 3121 3121 3121 3120 3119 3119 3118 3117 3116 3115 3114 3114 3113 3111 3111 3111 3109 3107 3104 3101 3097 3094 3093
3095 3100 3104 3106 3107 3108 3109 3109 3110 3111 3112 3113 3113 3113 3114 3114 3114 3114 3114 3115 3114 3114 3113 3112 3112 3111 3110 3109 3108 3107 3106 3105 3104 3103 3103 3102 3101 3099 3097 3093 3091 3087 3085
3089 3094 3097 3099 3100 3101 3102 3103 3103 3104 3105 3105 3106 3106 3107 3107 3107 3107 3107 3107 3107 3107 3106 3105 3104 3102 3101 3100 3098 3097 3096 3095 3095 3094 3094 3094 3093 3091 3089 3088 3085 3082 3078
3082 3087 3090 3092 3094 3095 3096 3097 3098 3099 3100 3100 3100 3100 3100 3100 3100 3099 3099 3099 3098 3098 3097 3097 3096 3094 3093 3092 3091 3090 3089 3088 3088 3087 3087 3086 3085 3084 3083 3081 3079 3077 3073
3078 3082 3085 3087 3089 3090 3091 3092 3093 3094 3094 3094 3094 3094 3093 3093 3093 3092 3091 3091 3090 3090 3090 3089 3088 3087 3086 3084 3084 3083 3083 3083 3083 3082 3081 3080 3079 3077 3076 3075 3073 3071 3067
3076 3079 3081 3083 3084 3085 3086 3087 3088 3088 3088 3088 3087 3087 3086 3085 3085 3084 3084 3083 3083 3083 3082 3082 3081 3080 3079 3078 3077 3076 3076 3077 3077 3076 3075 3073 3072 3071 3069 3068 3067 3064 3060
3074 3076 3077 3079 3080 3081 3082 3083 3082 3082 3082 3081 3080 3079 3078 3078 3077 3077 3077 3076 3076 3076 3076 3076 3075 3074 3073 3072 3071 3071 3070 3071 3071 3071 3069 3068 3065 3064 3063 3063 3062 3059 3054
3071 3074 3075 3076 3076 3077 3078 3077 3077 3076 3076 3075 3073 3072 3071 3071 3070 3070 3070 3071 3070 3070 3070 3069 3069 3067 3067 3067 3066 3066 3065 3065 3065 3065 3063 3062 3060 3059 3058 3057 3056 3054 3052
3068 3069 3073 3072 3072 3072 3072 3072 3071 3071 3070 3069 3067 3066 3066 3065 3064 3065 3065 3065 3064 3064 3064 3063 3063 3062 3062 3061 3062 3061 3061 3061 3061 3060 3059 3058 3057 3055 3054 3053 3053 3050 3047
3065 3067 3068 3068 3067 3067 3067 3066 3066 3065 3064 3062 3062 3059 3059 3060 3060 3060 3059 3059 3058 3058 3058 3058 3058 3057 3057 3057 3058 3058 3058 3058 3058 3058 3057 3057 3056 3054 3052 3050 3048 3045 3043
3061 3063 3063 3063 3063 3062 3062 3061 3060 3059 3058 3056 3054 3053 3053 3054 3056 3055 3054 3054 3054 3054 3054 3054 3054 3054 3055 3055 3056 3056 3057 3057 3057 3056 3056 3055 3052 3050 3049 3046 3043 3041 3038
3057 3059 3059 3059 3059 3058 3057 3056 3055 3054 3052 3051 3049 3048 3048 3049 3050 3050 3049 3049 3049 3050 3051 3052 3052 3053 3054 3055 3056 3055 3056 3055 3055 3054 3053 3052 3050 3047 3045 3042 3039 3036 3033
3052 3054 3054 3054 3054 3053 3053 3052 3050 3048 3047 3046 3044 3044 3044 3044 3045 3044 3044 3045 3046 3047 3049 3050 3051 3053 3054 3054 3054 3054 3054 3054 3053 3051 3050 3048 3046 3044 3041 3038 3034 3031 3028
3048 3049 3050 3049 3049 3049 3048 3046 3045 3045 3044 3042 3040 3039 3039 3040 3040 3041 3042 3043 3044 3045 3047 3048 3050 3051 3052 3052 3052 3052 3052 3051 3049 3048 3046 3044 3041 3039 3036 3032 3029 3025 3022
3043 3043 3044 3045 3045 3045 3044 3044 3042 3041 3040 3039 3038 3037 3036 3036 3037 3038 3040 3042 3043 3044 3045 3046 3048 3049 3050 3049 3049 3048 3047 3046 3045 3043 3041 3039 3036 3034 3031 3027 3023 3020 3016
3037 3038 3038 3039 3040 3041 3040 3039 3038 3037 3036 3036 3035 3034 3034 3035 3035 3037 3039 3041 3041 3042 3043 3044 3046 3046 3046 3046 3045 3044 3043 3042 3040 3038 3036 3034 3032 3029 3025 3022 3018 3014 3011
3033 3033 3034 3034 3035 3036 3036 3035 3035 3034 3033 3033 3033 3033 3033 3034 3035 3036 3037 3038 3039 3039 3041 3042 3042 3042 3042 3041 3040 3040 3039 3038 3036 3034 3032 3030 3028 3024 3021 3017 3013 3009 3006
3028 3029 3029 3029 3030 3031 3032 3032 3031 3031 3030 3030 3031 3031 3031 3031 3032 3033 3034 3035 3035 3036 3037 3038 3038 3038 3037 3036 3036 3035 3034 3033 3032 3030 3027 3025 3023 3020 3016 3012 3008 3004 3000
3023 3024 3024 3024 3025 3027 3027 3027 3027 3027 3026 3026 3027 3027 3028 3028 3028 3028 3030 3031 3032 3033 3033 3033 3034 3034 3032 3032 3031 3029 3028 3027 3026 3024 3022 3019 3017 3013 3010 3006 3002 2998 2994
3019 3019 3020 3021 3021 3022 3023 3023 3023 3023 3022 3022 3022 3022 3022 3023 3024 3023 3025 3026 3027 3028 3027 3028 3028 3028 3027 3026 3025 3024 3022 3021 3020 3018 3016 3013 3010 3007 3003 3000 2995 2991 2987